星链-33701 (STARLINK-33701)

导读

STARLINK-33701是美国SpaceX星链星座计划中的一颗卫星,于2025年4月6日成功发射。星链项目旨在构建全球卫星互联网星座,为全球偏远地区、网络基础设施薄弱区域提供高速互联网接入服务,这颗卫星的入轨进一步扩充了星链星座的在轨规模,助力星座覆盖能力与服务稳定性提升。

基本信息
目录编号:
63464
目录名称:
STARLINK-33701
国际标识:
2025-070E
轨道中心:
EARTH
卫星名称:
星链-33701
卫星全名:
星链-33701 (STARLINK-33701)
卫星状态:
在轨 (已飞行516 天)
发射日期:
2025-04-06 UTC
国别 :
美国 (US)
星等 :
--
轨道信息
数据来源 国际轨道数据
星历时间: 2026-09-04T14:29:50+0800
6小时前
查看轨道信息
半长轴: 6861.175km
偏心率: 0.0001474
轨道倾角: 43.001°
近地点辐角 280.895°
升交点赤经 331.655°
平近点角 79.174°
近地点: 482.026km
远地点: 484.05km
周期: 94.267分钟
每日圈数: 15.275839
详细信息
固有亮度:
5
最大亮度:
2.5
卫星平台:
Starlink V1.0
覆盖范围:
全球
运营商:
太空探索技术公司
运营商所在国:
美国
制造商(研发单位):
太空探索技术公司
制造商所在国:
美国
使用方式:
暂无
卫星简介
Starlink 计划是 SpaceX 推出的全球卫星互联网项目,通过发射低轨道卫星,为全球尤其是偏远地区提供高速、低延迟的互联网服务。自 2019 年起,Starlink 已部署数千颗卫星,旨在缩小全球数字鸿沟,推动互联网普及。该项目还为军事、航空等行业提供通信支持,带来广泛经济效益。
2D轨道图
3D轨道图
轨道高度分析图
轨道倾角分析图
轨道综合分析图
查看轨道综合分析图
交会数据列表
事件ID 空间交会对象 最接近时刻(TCA) 交会距离 交会风险概率(CRP) 交会风险指数(CRI) 操作
CDM_260906-063405-609806-346421
2026-09-06T
06:34:27+0000
0.489 km
远距离
1.492757E-4 高风险 0.78
CDM_260906-080805-609806-346421
2026-09-06T
08:08:36+0000
0.922 km
远距离
2.301915E-5 中风险 0.62
CDM_260906-050005-609806-346421
2026-09-06T
05:00:17+0000
1.752 km
极远距离
2.745158E-6 低风险 0.44
CDM_260906-094205-609806-346421
2026-09-06T
09:42:45+0000
2.263 km
极远距离
1.462961E-6 低风险 0.38
CDM_260905-102105-306606-346421
2026-09-05T
10:21:20+0000
2.608 km
极远距离
1.425545E-6 低风险 0.38